Simultaneous Nadir Overpasses (SNOs) Predictions

Prediction of SNOs between NOAA-20 and AQUA Satellite Orbit:

Table of predicted SNOs for the next 14.0 days since TLE Epoch: 11/16/2024
Index Date (NOAA-20) Time (NOAA-20) Lat,Lon (NOAA-20) SZA (NOAA-20 ) Date (AQUA) Time (AQUA) Lat,Lon (AQUA) SZA (AQUA ) Distance(km) Time Diff (sec)
1 11/16/2024 22:08:38 -81.32, -43.45 74.49 11/16/2024 22:08:37 -81.33, -43.41 74.50 1.11 1
2 11/19/2024 08:30:16 81.32, -18.97 106.11 11/19/2024 08:31:12 81.32, -19.08 106.10 1.85 56
3 11/19/2024 09:21:01 -81.32, 148.26 73.87 11/19/2024 09:20:33 -81.32, 148.45 73.88 3.17 28
4 11/21/2024 19:42:38 81.32, 173.01 106.66 11/21/2024 19:43:06 81.32, 172.87 106.67 2.36 28
5 11/21/2024 20:33:22 -81.32, -19.33 73.38 11/21/2024 20:32:26 -81.33, -19.21 73.36 2.15 56
6 11/24/2024 06:55:00 81.32, 4.90 107.19 11/24/2024 06:54:58 81.31, 4.92 107.19 0.48 2
7 11/26/2024 17:16:37 -81.32, 29.52 72.33 11/26/2024 17:17:29 -81.32, 29.38 72.34 2.41 52
8 11/26/2024 18:07:21 81.32,-162.89 107.65 11/26/2024 18:06:48 81.32,-162.93 107.67 0.69 33
9 11/29/2024 04:28:58 -81.32,-138.32 71.91 11/29/2024 04:29:17 -81.32,-138.35 71.91 0.70 19



Historial Predications of SNOs between NOAA-20 and AQUA
